Coimbatore, India

10:39 AM IST on June 26, 2017 (GMT +0530)
Coimbatore

Weather History for VOCB - March, 2014

Change the Weather History Date:

Wednesday, March 5, 2014

  Actual Average Record
Temperature  
Mean Temperature 84 °F -  
Max Temperature 93 °F - - ()
Min Temperature 74 °F - - ()
Cooling Degree Days 18    
Growing Degree Days 34 (Base 50)    
Moisture  
Dew Point 67 °F    
Average Humidity 59    
Maximum Humidity 83    
Minimum Humidity 22    
Precipitation  
Precipitation 0.00 in - - ()
Sea Level Pressure  
Sea Level Pressure 29.95 in    
Wind  
Wind Speed 6 mph ()    
Max Wind Speed 14 mph    
Max Gust Speed -    
Visibility 3.1 miles    
Events      
T = Trace of Precipitation, MM = Missing Value Source: Averaged Metar Reports

Daily Weather History Graph

Daily Weather History Graph

Search for Another Location

Airport or City:

Trip Planner

Search our weather history database for the weather conditions in past years. The results will help you decide how hot, cold, wet, or windy it might be!

Date:

Astronomy

Mar. 05, 2014 Rise Set
Actual Time 6:34 AM IST 6:32 PM IST
Civil Twilight 6:13 AM IST 6:53 PM IST
Nautical Twilight 5:49 AM IST 7:17 PM IST
Astronomical Twilight 5:24 AM IST 7:42 PM IST
Moon 9:31 AM IST (3/5) 10:18 PM IST (3/5)
Length of Visible Light 12h 39m
Length of Day
11h 57m
Waxing Crescent, 19% of the Moon is Illuminated
Mar 5
Waxing Crescent
Mar 8
First Quarter
Mar 16
Full
Mar 24
Last Quarter
Mar 31
New

Hourly Weather History & Observations

Time (IST) Temp. Heat Index Dew Point Humidity Pressure Visibility Wind Dir Wind Speed Gust Speed Precip Events Conditions
2:30 AM 77 °F - 70 °F 74% 29.91 in 2 mi NE 4.6 mph - -   Haze
2:30 AM 77.0 °F - 69.8 °F 78% 29.95 in 3.1 mi NE 4.6 mph - N/A   Haze
4:30 AM 75.2 °F - 69.8 °F 83% 29.95 in 3.1 mi ENE 5.8 mph - N/A   Haze
5:30 AM 76 °F - 69 °F 73% 29.91 in 2 mi NE 6.9 mph - -   Haze
7:30 AM 75.2 °F - 69.8 °F 83% 30.01 in 3.1 mi ENE 8.1 mph - N/A   Haze
8:00 AM 77.0 °F - 69.8 °F 78% 30.01 in 3.1 mi ENE 8.1 mph - N/A   Haze
8:30 AM 77 °F - 69 °F 71% 29.96 in 2 mi NE 6.9 mph - -   Haze
8:30 AM 77.0 °F - 69.8 °F 78% 30.01 in 3.1 mi NE 6.9 mph - N/A   Haze
9:00 AM 78.8 °F - 69.8 °F 74% 30.04 in 3.1 mi East 5.8 mph - N/A   Haze
9:30 AM 78.8 °F - 69.8 °F 74% 30.04 in 3.1 mi East 9.2 mph - N/A   Haze
10:00 AM 80.6 °F 83.2 °F 68.0 °F 65% 30.04 in 3.7 mi East 9.2 mph - N/A   Scattered Clouds
10:30 AM 80.6 °F 83.2 °F 68.0 °F 65% 30.04 in 3.7 mi ESE 8.1 mph - N/A   Scattered Clouds
11:00 AM 82.4 °F 85.4 °F 68.0 °F 62% 30.04 in 3.7 mi ESE 6.9 mph - N/A   Scattered Clouds
11:30 AM 84 °F - 65 °F 44% 29.94 in 2 mi ESE 9.2 mph - -   Haze
11:30 AM 84.2 °F 86.6 °F 66.2 °F 55% 30.01 in 4.3 mi ESE 9.2 mph - N/A   Scattered Clouds
2:00 PM 89.6 °F 90.1 °F 62.6 °F 40% 29.92 in 5.0 mi SE 6.9 mph - N/A   Scattered Clouds
2:30 PM 90 °F - 62 °F 29% 29.81 in 2 mi East 3.5 mph - -   Haze
2:30 PM 89.6 °F 90.1 °F 62.6 °F 40% 29.89 in 5.0 mi East 3.5 mph - N/A   Scattered Clouds
5:30 PM 92 °F - 58 °F 22% 29.76 in 2 mi ESE 3.5 mph - -   Haze
5:30 PM 91.4 °F 89.9 °F 57.2 °F 31% 29.86 in 5.0 mi ESE 3.5 mph - N/A   Partly Cloudy
8:30 PM 87 °F - 60 °F 30% 29.84 in 2 mi SE 5.8 mph - -   Haze
11:30 PM 81 °F - 69 °F 58% 29.91 in 2 mi SE 13.8 mph - -   Haze